| time (UTC) | temp F | wind direction | speed MPH | gust MPH | rain 1hr in | rain 24hr in | rain mn in | humidity % | barometer mb |
| 20260507210540 | 68 | 45 | 4.0 | 11.0 | 0.00 | 0.79 | 0.67 | 63 | 1011.9 |
| 20260507205544 | 69 | 45 | 3.0 | 8.0 | 0.00 | 0.79 | 0.67 | 61 | 1012.1 |
| 20260507204548 | 68 | 0 | 2.0 | 6.0 | 0.00 | 0.79 | 0.67 | 62 | 1012.1 |
| 20260507203541 | 68 | 338 | 3.0 | 11.0 | 0.00 | 0.79 | 0.67 | 61 | 1012.1 |
| 20260507202537 | 69 | 338 | 2.0 | 5.0 | 0.00 | 0.79 | 0.67 | 60 | 1012.3 |
| 20260507201540 | 68 | 23 | 2.0 | 6.0 | 0.00 | 0.79 | 0.67 | 61 | 1012.0 |
| 20260507200538 | 68 | 23 | 2.0 | 5.0 | 0.00 | 0.79 | 0.67 | 60 | 1012.0 |
| 20260507195539 | 68 | 315 | 3.0 | 8.0 | 0.00 | 0.79 | 0.67 | 62 | 1011.9 |
| 20260507194535 | 67 | 23 | 2.0 | 4.0 | 0.00 | 0.79 | 0.67 | 63 | 1012.0 |
| 20260507193538 | 67 | 45 | 3.0 | 9.0 | 0.00 | 0.79 | 0.67 | 64 | 1011.9 |
| 20260507192554 | 67 | 68 | 3.0 | 6.0 | 0.00 | 0.79 | 0.67 | 64 | 1011.8 |
| 20260507191535 | 68 | 0 | 2.0 | 5.0 | 0.00 | 0.79 | 0.67 | 64 | 1011.8 |
| 20260507190601 | 68 | 203 | 1.0 | 4.0 | 0.00 | 0.79 | 0.67 | 64 | 1012.1 |
| 20260507185540 | 67 | 315 | 5.0 | 9.0 | 0.00 | 0.79 | 0.67 | 64 | 1012.1 |
| 20260507184547 | 66 | 315 | 3.0 | 11.0 | 0.00 | 0.79 | 0.67 | 67 | 1012.3 |
| 20260507183542 | 65 | 338 | 2.0 | 4.0 | 0.00 | 0.79 | 0.67 | 72 | 1012.4 |
| 20260507182548 | 65 | 45 | 1.0 | 3.0 | 0.00 | 0.79 | 0.67 | 74 | 1012.5 |
| 20260507181552 | 64 | 45 | 2.0 | 4.0 | 0.00 | 0.79 | 0.67 | 76 | 1012.6 |
| 20260507180603 | 64 | 68 | 2.0 | 6.0 | 0.00 | 0.79 | 0.67 | 75 | 1012.9 |
| 20260507175603 | 63 | 45 | 1.0 | 3.0 | 0.00 | 0.79 | 0.67 | 75 | 1012.9 |
| 20260507174550 | 63 | 23 | 2.0 | 4.0 | 0.00 | 0.79 | 0.67 | 76 | 1012.9 |
| 20260507173547 | 63 | 293 | 2.0 | 9.0 | 0.00 | 0.79 | 0.67 | 75 | 1012.8 |
| 20260507172538 | 63 | 23 | 1.0 | 4.0 | 0.00 | 0.79 | 0.67 | 76 | 1013.1 |
| 20260507171538 | 63 | 0 | 2.0 | 4.0 | 0.00 | 0.79 | 0.67 | 78 | 1013.2 |
| 20260507170536 | 63 | 270 | 1.0 | 3.0 | 0.00 | 0.79 | 0.67 | 79 | 1013.3 |
| 20260507165548 | 62 | 68 | 3.0 | 8.0 | 0.00 | 0.79 | 0.67 | 77 | 1013.2 |
| 20260507164538 | 62 | 45 | 5.0 | 10.0 | 0.00 | 0.79 | 0.67 | 77 | 1013.2 |
| 20260507163549 | 62 | 90 | 3.0 | 9.0 | 0.00 | 0.79 | 0.67 | 83 | 1013.0 |
| 20260507162541 | 61 | 23 | 2.0 | 4.0 | 0.00 | 0.79 | 0.67 | 84 | 1013.1 |
| 20260507161539 | 60 | 23 | 2.0 | 6.0 | 0.00 | 0.79 | 0.67 | 87 | 1012.8 |
| 20260507160546 | 60 | 135 | 3.0 | 5.0 | 0.00 | 0.79 | 0.67 | 86 | 1012.7 |
| 20260507155540 | 59 | 113 | 3.0 | 4.0 | 0.00 | 0.79 | 0.67 | 88 | 1012.6 |
| 20260507154548 | 58 | 68 | 2.0 | 5.0 | 0.00 | 0.79 | 0.67 | 88 | 1012.9 |
| 20260507153550 | 58 | 203 | 1.0 | 4.0 | 0.00 | 0.79 | 0.67 | 89 | 1013.0 |
| 20260507152550 | 58 | 203 | 1.0 | 5.0 | 0.00 | 0.79 | 0.67 | 90 | 1013.1 |
| 20260507151602 | 58 | 0 | 3.0 | 7.0 | 0.00 | 0.79 | 0.67 | 90 | 1013.1 |
| 20260507150555 | 58 | 0 | 1.0 | 3.0 | 0.00 | 0.79 | 0.67 | 90 | 1013.0 |
| 20260507145550 | 58 | 23 | 1.0 | 4.0 | 0.00 | 0.79 | 0.67 | 91 | 1012.8 |
| 20260507144554 | 58 | 338 | 1.0 | 3.0 | 0.00 | 0.79 | 0.67 | 91 | 1012.6 |
| 20260507143543 | 58 | 338 | 1.0 | 2.0 | 0.00 | 0.79 | 0.67 | 91 | 1012.6 |
| 20260507142559 | 58 | 23 | 1.0 | 3.0 | 0.00 | 0.79 | 0.67 | 92 | 1012.4 |
| 20260507141548 | 58 | 68 | 1.0 | 2.0 | 0.00 | 0.80 | 0.67 | 92 | 1012.1 |
| 20260507140540 | 58 | 45 | 2.0 | 4.0 | 0.00 | 0.81 | 0.67 | 92 | 1011.8 |
| 20260507135547 | 58 | 0 | 1.0 | 3.0 | 0.00 | 0.81 | 0.67 | 93 | 1011.8 |
| 20260507134537 | 57 | 23 | 3.0 | 5.0 | 0.00 | 0.81 | 0.67 | 92 | 1011.8 |
| 20260507133541 | 57 | 23 | 1.0 | 2.0 | 0.00 | 0.81 | 0.67 | 93 | 1011.9 |
| 20260507132541 | 57 | 338 | 1.0 | 3.0 | 0.64 | 0.81 | 0.67 | 93 | 1011.7 |
| 20260507131540 | 57 | 338 | 2.0 | 4.0 | 0.64 | 0.81 | 0.67 | 93 | 1011.8 |
| 20260507130553 | 57 | 0 | 2.0 | 4.0 | 0.64 | 0.81 | 0.67 | 93 | 1011.7 |
| 20260507125537 | 57 | 338 | 1.0 | 3.0 | 0.64 | 0.81 | 0.67 | 93 | 1011.6 |
| 20260507124536 | 57 | 338 | 1.0 | 2.0 | 0.64 | 0.81 | 0.67 | 93 | 1011.6 |
| 20260507123536 | 57 | 338 | 2.0 | 5.0 | 0.64 | 0.81 | 0.67 | 93 | 1011.6 |
| 20260507122554 | 57 | 0 | 1.0 | 3.0 | 0.00 | 0.17 | 0.03 | 93 | 1011.0 |
| 20260507121547 | 57 | 338 | 2.0 | 3.0 | 0.00 | 0.17 | 0.03 | 93 | 1011.0 |
| 20260507120539 | 58 | 293 | 1.0 | 4.0 | 0.00 | 0.17 | 0.03 | 93 | 1010.9 |
| 20260507115537 | 57 | 315 | 2.0 | 3.0 | 0.00 | 0.17 | 0.03 | 93 | 1010.8 |
| 20260507114551 | 57 | 23 | 1.0 | 2.0 | 0.00 | 0.17 | 0.03 | 93 | 1010.2 |
| 20260507113546 | 58 | 0.0 | 1.0 | 0.00 | 0.17 | 0.03 | 93 | 1010.5 | |
| 20260507112542 | 58 | 338 | 1.0 | 2.0 | 0.00 | 0.17 | 0.03 | 93 | 1010.3 |
| 20260507111547 | 58 | 23 | 1.0 | 2.0 | 0.01 | 0.17 | 0.03 | 93 | 1009.8 |
| 20260507110545 | 58 | 315 | 2.0 | 4.0 | 0.01 | 0.17 | 0.03 | 93 | 1010.6 |
| 20260507105534 | 58 | 68 | 1.0 | 3.0 | 0.01 | 0.17 | 0.03 | 93 | 1009.6 |
| 20260507104540 | 58 | 315 | 3.0 | 6.0 | 0.01 | 0.17 | 0.03 | 93 | 1010.5 |
| 20260507103542 | 58 | 338 | 1.0 | 3.0 | 0.01 | 0.17 | 0.03 | 93 | 1010.0 |
| 20260507102534 | 59 | 315 | 1.0 | 3.0 | 0.01 | 0.17 | 0.03 | 93 | 1009.9 |
| 20260507101537 | 58 | 45 | 1.0 | 3.0 | 0.00 | 0.16 | 0.02 | 93 | 1009.3 |
| 20260507100549 | 59 | 45 | 2.0 | 4.0 | 0.00 | 0.16 | 0.02 | 93 | 1009.6 |
| 20260507095548 | 59 | 315 | 2.0 | 4.0 | 0.00 | 0.16 | 0.02 | 93 | 1010.5 |
| 20260507094534 | 58 | 23 | 2.0 | 3.0 | 0.00 | 0.16 | 0.02 | 93 | 1009.1 |
| 20260507093541 | 58 | 315 | 1.0 | 3.0 | 0.00 | 0.16 | 0.02 | 93 | 1009.6 |
| 20260507092549 | 58 | 23 | 1.0 | 3.0 | 0.00 | 0.16 | 0.02 | 93 | 1009.8 |
| 20260507091540 | 58 | 338 | 2.0 | 3.0 | 0.00 | 0.16 | 0.02 | 93 | 1009.6 |
| 20260507090542 | 58 | 68 | 1.0 | 3.0 | 0.00 | 0.16 | 0.02 | 93 | 1009.4 |
| 20260507085537 | 58 | 338 | 1.0 | 4.0 | 0.00 | 0.16 | 0.02 | 93 | 1009.7 |
| 20260507084536 | 59 | 0 | 2.0 | 5.0 | 0.01 | 0.16 | 0.02 | 93 | 1010.4 |
| 20260507083548 | 59 | 338 | 3.0 | 8.0 | 0.01 | 0.16 | 0.02 | 93 | 1010.9 |
| 20260507082543 | 58 | 135 | 1.0 | 2.0 | 0.01 | 0.16 | 0.02 | 93 | 1008.9 |
| 20260507081558 | 59 | 0 | 2.0 | 5.0 | 0.01 | 0.16 | 0.02 | 93 | 1009.3 |
| 20260507080545 | 59 | 135 | 1.0 | 4.0 | 0.01 | 0.16 | 0.02 | 93 | 1009.3 |
| 20260507075548 | 60 | 0 | 1.0 | 3.0 | 0.01 | 0.16 | 0.02 | 93 | 1009.2 |
| 20260507074540 | 60 | 270 | 1.0 | 3.0 | 0.00 | 0.15 | 0.01 | 93 | 1009.7 |
| 20260507073533 | 60 | 315 | 2.0 | 4.0 | 0.00 | 0.15 | 0.01 | 93 | 1009.6 |
| 20260507072539 | 60 | 338 | 1.0 | 3.0 | 0.00 | 0.15 | 0.01 | 93 | 1009.5 |
| 20260507071543 | 60 | 338 | 1.0 | 4.0 | 0.00 | 0.15 | 0.01 | 93 | 1009.1 |
| 20260507070545 | 60 | 315 | 2.0 | 5.0 | 0.00 | 0.15 | 0.01 | 92 | 1009.4 |
| 20260507065540 | 61 | 315 | 5.0 | 10.0 | 0.00 | 0.15 | 0.01 | 92 | 1010.2 |
| 20260507064539 | 61 | 0 | 2.0 | 4.0 | 0.00 | 0.15 | 0.01 | 93 | 1009.5 |
| 20260507063551 | 61 | 315 | 2.0 | 5.0 | 0.01 | 0.15 | 0.01 | 92 | 1009.6 |
| 20260507062547 | 62 | 338 | 2.0 | 4.0 | 0.01 | 0.15 | 0.01 | 92 | 1010.0 |
| 20260507061547 | 63 | 338 | 3.0 | 7.0 | 0.01 | 0.15 | 0.01 | 92 | 1010.3 |
| 20260507060543 | 64 | 315 | 2.0 | 6.0 | 0.01 | 0.15 | 0.01 | 92 | 1010.4 |
| 20260507055541 | 65 | 0.0 | 1.0 | 0.01 | 0.15 | 0.01 | 93 | 1010.6 | |
| 20260507054541 | 65 | 0.0 | 0.0 | 0.01 | 0.15 | 0.01 | 93 | 1010.0 | |
| 20260507053551 | 65 | 0.0 | 0.0 | 0.00 | 0.14 | 0.00 | 93 | 1010.1 | |
| 20260507052546 | 65 | 0.0 | 0.0 | 0.00 | 0.14 | 0.00 | 93 | 1010.3 | |
| 20260507051542 | 65 | 0.0 | 0.0 | 0.00 | 0.14 | 0.00 | 93 | 1010.4 | |
| 20260507050555 | 65 | 0.0 | 0.0 | 0.00 | 0.14 | 0.00 | 93 | 1010.3 | |
| 20260507045602 | 66 | 0.0 | 0.0 | 0.01 | 0.14 | 0.14 | 93 | 1010.1 | |
| 20260507044548 | 66 | 0.0 | 1.0 | 0.01 | 0.14 | 0.14 | 93 | 1010.7 | |
| 20260507043547 | 66 | 0.0 | 0.0 | 0.01 | 0.14 | 0.14 | 93 | 1010.7 | |
| 20260507042555 | 66 | 0.0 | 1.0 | 0.01 | 0.14 | 0.14 | 93 | 1010.2 | |
| 20260507041600 | 66 | 0.0 | 1.0 | 0.01 | 0.14 | 0.14 | 93 | 1010.6 | |
| 20260507040551 | 66 | 0.0 | 1.0 | 0.01 | 0.14 | 0.14 | 93 | 1011.8 | |
| 20260507035605 | 66 | 0.0 | 0.0 | 0.00 | 0.13 | 0.13 | 92 | 1010.4 | |
| 20260507034544 | 66 | 0.0 | 0.0 | 0.00 | 0.13 | 0.13 | 92 | 1010.9 | |
| 20260507033542 | 66 | 0.0 | 0.0 | 0.00 | 0.13 | 0.13 | 92 | 1010.1 | |
| 20260507032541 | 66 | 0.0 | 0.0 | 0.00 | 0.13 | 0.13 | 93 | 1009.9 | |
| 20260507031536 | 66 | 0.0 | 0.0 | 0.01 | 0.13 | 0.13 | 93 | 1010.4 | |
| 20260507030538 | 66 | 0.0 | 0.0 | 0.01 | 0.13 | 0.13 | 92 | 1010.7 | |
| 20260507025549 | 66 | 0.0 | 0.0 | 0.01 | 0.13 | 0.13 | 92 | 1010.3 | |
| 20260507024541 | 66 | 0.0 | 0.0 | 0.01 | 0.13 | 0.13 | 92 | 1010.3 | |
| 20260507023534 | 66 | 0.0 | 0.0 | 0.01 | 0.13 | 0.13 | 92 | 1010.4 | |
| 20260507022541 | 66 | 0.0 | 0.0 | 0.01 | 0.13 | 0.13 | 92 | 1010.7 | |
| 20260507021539 | 66 | 0.0 | 0.0 | 0.00 | 0.12 | 0.12 | 92 | 1010.9 | |
| 20260507020538 | 66 | 0.0 | 0.0 | 0.01 | 0.12 | 0.12 | 92 | 1010.5 | |
| 20260507015547 | 66 | 0.0 | 0.0 | 0.01 | 0.12 | 0.12 | 92 | 1010.5 | |
| 20260507014550 | 66 | 0.0 | 0.0 | 0.01 | 0.12 | 0.12 | 92 | 1010.2 | |
| 20260507013552 | 66 | 0.0 | 0.0 | 0.01 | 0.12 | 0.12 | 92 | 1010.2 | |
| 20260507012553 | 66 | 0.0 | 0.0 | 0.01 | 0.12 | 0.12 | 92 | 1010.4 | |
| 20260507011539 | 66 | 0.0 | 0.0 | 0.02 | 0.12 | 0.12 | 92 | 1010.5 | |
| 20260507010542 | 66 | 0.0 | 0.0 | 0.01 | 0.11 | 0.11 | 92 | 1010.6 | |
| 20260507005554 | 66 | 338 | 1.0 | 2.0 | 0.01 | 0.11 | 0.11 | 92 | 1010.5 |
| 20260507004542 | 66 | 0.0 | 1.0 | 0.01 | 0.11 | 0.11 | 92 | 1010.6 | |
| 20260507003607 | 66 | 0.0 | 0.0 | 0.02 | 0.11 | 0.11 | 92 | 1010.8 | |
| 20260507002548 | 66 | 0.0 | 0.0 | 0.02 | 0.11 | 0.11 | 92 | 1010.8 | |
| 20260507001544 | 66 | 23 | 1.0 | 2.0 | 0.01 | 0.10 | 0.10 | 92 | 1010.7 |
| 20260507000537 | 66 | 0.0 | 1.0 | 0.02 | 0.10 | 0.10 | 92 | 1010.9 | |
| 20260506235544 | 66 | 248 | 1.0 | 2.0 | 0.02 | 0.10 | 0.10 | 92 | 1010.9 |
| 20260506234553 | 66 | 68 | 1.0 | 3.0 | 0.02 | 0.10 | 0.10 | 92 | 1010.3 |
| 20260506233540 | 66 | 0.0 | 2.0 | 0.02 | 0.09 | 0.09 | 92 | 1010.5 | |
| 20260506232544 | 66 | 0.0 | 1.0 | 0.02 | 0.09 | 0.09 | 91 | 1010.5 | |
| 20260506231535 | 66 | 45 | 1.0 | 3.0 | 0.03 | 0.09 | 0.09 | 91 | 1010.2 |
| 20260506230535 | 66 | 0.0 | 1.0 | 0.02 | 0.08 | 0.08 | 91 | 1010.7 | |
| 20260506225543 | 66 | 23 | 1.0 | 2.0 | 0.03 | 0.08 | 0.08 | 91 | 1010.3 |
| 20260506224534 | 66 | 23 | 1.0 | 3.0 | 0.03 | 0.08 | 0.08 | 91 | 1010.2 |
| 20260506223539 | 66 | 45 | 1.0 | 3.0 | 0.03 | 0.07 | 0.07 | 91 | 1010.1 |
| 20260506222535 | 66 | 45 | 1.0 | 4.0 | 0.03 | 0.07 | 0.07 | 91 | 1009.9 |
| 20260506221534 | 66 | 248 | 1.0 | 5.0 | 0.03 | 0.06 | 0.06 | 91 | 1009.9 |
| 20260506220548 | 66 | 23 | 3.0 | 5.0 | 0.04 | 0.06 | 0.06 | 90 | 1009.8 |
| 20260506215543 | 66 | 113 | 2.0 | 3.0 | 0.03 | 0.05 | 0.05 | 90 | 1010.0 |
| 20260506214548 | 66 | 293 | 2.0 | 7.0 | 0.03 | 0.05 | 0.05 | 90 | 1010.4 |
| 20260506213545 | 66 | 135 | 3.0 | 7.0 | 0.02 | 0.04 | 0.04 | 89 | 1009.2 |
| 20260506212549 | 67 | 23 | 1.0 | 2.0 | 0.02 | 0.04 | 0.04 | 88 | 1009.5 |
| 20260506211558 | 68 | 113 | 1.0 | 3.0 | 0.01 | 0.03 | 0.03 | 86 | 1009.6 |